CW9451 Weather Reports


Display with metric or nautical units.
time (UTC)temp
F
wind
direction
speed
MPH
gust
MPH
rain 1hr
in
rain 24hr
in
rain mn
in
humidity
%
barometer
mb
20260831000909 65 0.0 0.0 0.00 0.00 0.00 94 1013.4
20260830234905 65 0.0 0.0 0.00 0.00 0.00 93 1013.5
20260830233904 65 0.0 0.0 0.00 0.00 0.00 95 1013.6
20260830232904 65 0.0 0.0 0.00 0.00 0.00 94 1013.7
20260830231904 65 0.0 0.0 0.00 0.00 0.00 94 1013.6
20260830230904 65 0.0 0.0 0.00 0.00 0.00 94 1013.8
20260830225905 65 0.0 0.0 0.00 0.00 0.00 93 1013.8
20260830224905 66 0.0 0.0 0.00 0.00 0.00 92 1013.9
20260830223904 66 0.0 0.0 0.00 0.00 0.00 93 1013.9
20260830222904 66 0.0 0.0 0.00 0.00 0.00 92 1013.9
20260830221908 66 0.0 0.0 0.00 0.00 0.00 91 1013.9
20260830215909 66 0.0 0.0 0.00 0.00 0.00 92 1014.0
20260830213904 66 0.0 0.0 0.00 0.00 0.00 90 1013.7
20260830212904 66 0.0 0.0 0.00 0.00 0.00 89 1013.5
20260830211904 66 0.0 0.0 0.00 0.00 0.00 91 1013.7
20260830210904 67 0.0 0.0 0.00 0.00 0.00 89 1013.7
20260830205905 67 0.0 0.0 0.00 0.00 0.00 90 1013.8
20260830204905 67 0.0 0.0 0.00 0.00 0.00 90 1013.7
20260830203904 67 0.0 0.0 0.00 0.00 0.00 88 1013.7
20260830202904 67 0.0 0.0 0.00 0.00 0.00 87 1013.6
20260830201905 67 0.0 0.0 0.00 0.00 0.00 88 1013.7
20260830200904 68 0.0 0.0 0.00 0.00 0.00 87 1013.6
20260830195904 68 0.0 0.0 0.00 0.00 0.00 86 1013.6
20260830194904 68 0.0 0.0 0.00 0.00 0.00 86 1013.6
20260830193904 68 0.0 0.0 0.00 0.00 0.00 85 1013.8
20260830192904 69 0.0 0.0 0.00 0.00 0.00 84 1013.7
20260830191905 69 0.0 0.0 0.00 0.00 0.00 84 1013.7
20260830190910 69 0.0 0.0 0.00 0.00 0.00 84 1013.7
20260830184906 69 0.0 0.0 0.00 0.00 0.00 84 1013.5
20260830183905 70 0.0 0.0 0.00 0.00 0.00 83 1013.5
20260830182905 70 0.0 0.0 0.00 0.00 0.00 83 1013.4
20260830181904 70 0.0 0.0 0.00 0.00 0.00 81 1013.2
20260830180909 70 0.0 0.0 0.00 0.00 0.00 82 1013.1
20260830174904 71 0.0 0.0 0.00 0.00 0.00 78 1012.9
20260830173905 71 0.0 0.0 0.00 0.00 0.00 76 1012.8
20260830172904 72 0.0 0.0 0.00 0.00 0.00 74 1012.6
20260830171904 72 0.0 0.0 0.00 0.00 0.00 74 1012.6
20260830170904 72 0.0 0.0 0.00 0.00 0.00 73 1012.6
20260830165904 73 0.0 0.0 0.00 0.00 0.00 71 1012.5
20260830164905 73 0.0 0.0 0.00 0.00 0.00 72 1012.7
20260830163904 73 0.0 0.0 0.00 0.00 0.00 71 1012.4
20260830162904 74 0.0 0.0 0.00 0.00 0.00 70 1012.5
20260830161904 74 0.0 0.0 0.00 0.00 0.00 70 1012.6
20260830160904 74 0.0 0.0 0.00 0.00 0.00 71 1012.6
20260830155905 74 0.0 0.0 0.00 0.00 0.00 70 1012.5
20260830154905 74 0.0 0.0 0.00 0.00 0.00 71 1012.4
20260830153905 75 0.0 0.0 0.00 0.00 0.00 71 1012.5
20260830152909 75 0.0 0.0 0.00 0.00 0.00 71 1012.7
20260830150904 75 0.0 0.0 0.00 0.00 0.00 71 1013.2
20260830145908 74 0.0 0.0 0.00 0.00 0.00 73 1012.9
20260830143909 74 0.0 0.0 0.00 0.00 0.00 71 1013.1
20260830141905 73 0.0 0.0 0.00 0.00 0.00 74 1012.7
20260830140904 73 0.0 0.0 0.00 0.00 0.00 75 1012.6
20260830135903 73 0.0 0.0 0.00 0.00 0.00 75 1012.6
20260830134903 73 0.0 0.0 0.00 0.00 0.00 73 1012.4
20260830133904 73 0.0 0.0 0.00 0.00 0.00 73 1012.5
20260830132904 73 0.0 0.0 0.00 0.00 0.00 72 1012.4
20260830131905 73 0.0 0.0 0.00 0.00 0.00 73 1012.4
20260830130905 74 0.0 0.0 0.00 0.00 0.00 72 1012.3
20260830125909 74 0.0 0.0 0.00 0.00 0.00 74 1012.1
20260830123909 75 0.0 0.0 0.00 0.00 0.00 70 1012.4
20260830121905 73 0.0 0.0 0.00 0.00 0.00 74 1012.1
20260830120904 72 0.0 0.0 0.00 0.00 0.00 76 1012.1
20260830115909 72 0.0 0.0 0.00 0.00 0.00 74 1011.8
20260830113905 73 0.0 0.0 0.00 0.00 0.00 69 1011.4
20260830112904 75 0.0 0.0 0.00 0.00 0.00 69 1011.4
20260830111904 75 0.0 0.0 0.00 0.00 0.00 70 1011.9
20260830110905 73 0.0 0.0 0.00 0.00 0.00 70 1011.8
20260830105905 73 0.0 0.0 0.00 0.00 0.00 70 1011.6
20260830104910 73 0.0 0.0 0.00 0.00 0.00 70 1011.5
20260830102909 73 0.0 0.0 0.00 0.00 0.00 70 1011.7
20260830100905 74 0.0 0.0 0.00 0.00 0.00 71 1011.8
20260830095904 73 0.0 0.0 0.00 0.00 0.00 71 1012.0
20260830094909 72 0.0 0.0 0.00 0.00 0.00 72 1011.9
20260830092904 72 0.0 0.0 0.00 0.00 0.00 71 1011.6
20260830091904 72 0.0 0.0 0.00 0.00 0.00 72 1011.7
20260830090904 73 0.0 0.0 0.00 0.00 0.00 72 1012.0
20260830085904 72 0.0 0.0 0.00 0.00 0.00 74 1011.9
20260830084904 72 0.0 0.0 0.00 0.00 0.00 76 1011.8
20260830083909 71 0.0 0.0 0.00 0.00 0.00 76 1011.7
20260830081904 71 0.0 0.0 0.00 0.00 0.00 80 1011.9
20260830080905 71 0.0 0.0 0.00 0.00 0.00 83 1011.9
20260830075904 70 0.0 0.0 0.00 0.00 0.00 85 1011.7
20260830074904 69 0.0 0.0 0.00 0.00 0.00 89 1011.8
20260830073904 69 0.0 0.0 0.00 0.00 0.00 89 1011.7
20260830072904 70 0.0 0.0 0.00 0.00 0.00 94 1011.9
20260830071904 70 0.0 0.0 0.00 0.00 0.00 96 1011.7
20260830070904 70 0.0 0.0 0.00 0.00 0.00 96 1011.8
20260830065904 69 0.0 0.0 0.00 0.00 0.00 98 1011.7
20260830064909 70 0.0 0.0 0.00 0.00 0.00 97 1011.6
20260830062905 69 0.0 0.0 0.00 0.00 0.00 98 1011.6
20260830061904 69 0.0 0.0 0.00 0.00 0.00 98 1011.6
20260830060905 69 0.0 0.0 0.00 0.00 0.00 98 1011.5
20260830055904 69 0.0 0.0 0.00 0.00 0.00 97 1011.4
20260830054905 69 0.0 0.0 0.00 0.00 0.00 97 1011.4
20260830053904 68 0.0 0.0 0.00 0.00 0.00 98 1011.4
20260830052904 68 0.0 0.0 0.00 0.00 0.00 98 1011.4
20260830051904 68 0.0 0.0 0.00 0.00 0.00 99 1011.3
20260830050904 68 0.0 0.0 0.00 0.00 0.00 10 1011.2
20260830045905 68 0.0 0.0 0.00 0.00 0.00 10 1011.2
20260830044904 68 0.0 0.0 0.00 0.00 0.00 10 1011.2
20260830043905 67 0.0 0.0 0.00 0.00 0.00 10 1011.1
20260830042904 68 0.0 0.0 0.00 0.00 0.00 99 1011.0
20260830041904 68 0.0 0.0 0.00 0.00 0.00 99 1010.9
20260830040904 68 0.0 0.0 0.00 0.00 0.00 99 1011.0
20260830035904 68 0.0 0.0 0.00 0.00 0.00 98 1011.1
20260830034904 68 0.0 0.0 0.00 0.00 0.00 98 1011.0
20260830033909 67 0.0 0.0 0.00 0.00 0.00 99 1010.8
20260830030904 68 0.0 0.0 0.00 0.00 0.00 93 1010.9
20260830025905 68 0.0 0.0 0.00 0.00 0.00 94 1010.7
20260830024905 68 0.0 0.0 0.00 0.00 0.00 94 1010.8
20260830023904 68 0.0 0.0 0.00 0.00 0.00 93 1010.8
20260830022905 68 0.0 0.0 0.00 0.00 0.00 93 1010.7
20260830021905 68 0.0 0.0 0.00 0.00 0.00 93 1010.6
20260830020909 68 0.0 0.0 0.00 0.00 0.00 92 1010.5
20260830013905 69 0.0 0.0 0.00 0.00 0.00 90 1010.5
20260830012905 69 0.0 0.0 0.00 0.00 0.00 89 1010.6
20260830011905 69 0.0 0.0 0.00 0.00 0.00 88 1010.7
20260830010904 69 0.0 0.0 0.00 0.00 0.00 88 1010.7
20260830005905 70 0.0 0.0 0.00 0.00 0.00 87 1010.8
20260830004904 70 0.0 0.0 0.00 0.00 0.00 86 1011.0
20260830003904 70 0.0 0.0 0.00 0.00 0.00 86 1011.0
20260830002903 70 0.0 0.0 0.00 0.00 0.00 86 1011.0
20260830001904 70 0.0 0.0 0.00 0.00 0.00 86 1011.0